Location: Carnoy
(49.9849°N, 2.7558°E)
Time: 00:12:53
(UTC+00:00)

BREEZE-M DEB (TANK) - Pass Details

Date: 24 January 2020
Orbit: 323 x 14856 km, 49.5° (Epoch: 22 February)

Event Time Altitude Azimuth Distance (km) Brightness Sun altitude
Rises 18:30:49 0° 240° (WSW) 2,136 7.3 -19.3°
Reaches altitude 10° 18:32:34 10° 232° (SW) 1,236 5.7 -19.6°
Enters shadow 18:34:14 37° 195° (SSW) 561 3.2 -19.8°
